Allentown, PA

4:38 PM EST on December 10, 2019 (GMT -0500)
Allentown

Weather History for KXLL - November, 2019

Change the Weather History Date:

Monday, November 11, 2019

  Actual Average (KABE) Record (KABE)
Temperature  
Mean Temperature 47 °F -  
Max Temperature 62 °F 51 °F 72 °F (1949)
Min Temperature 32 °F 36 °F 18 °F (2017)
Degree Days  
Heating Degree Days 18    
Moisture  
Dew Point 38 °F    
Average Humidity 70    
Maximum Humidity 100    
Minimum Humidity 45    
Precipitation  
Precipitation 0.00 in - - ()
Sea Level Pressure  
Sea Level Pressure 29.99 in    
Wind  
Wind Speed 1 mph ()    
Max Wind Speed 12 mph    
Max Gust Speed 18 mph    
Visibility 9.8 miles    
Events      
Averages and records for this station are not official NWS values.
T = Trace of Precipitation, MM = Missing Value Source: Averaged Metar Reports

Daily Weather History Graph

Daily Weather History Graph

Search for Another Location

Airport or City:

Astronomy

Nov. 11, 2019 Rise Set
Actual Time 6:43 AM EST 4:47 PM EST
Civil Twilight 6:14 AM EST 5:16 PM EST
Nautical Twilight 5:41 AM EST 5:49 PM EST
Astronomical Twilight 5:09 AM EST 6:21 PM EST
Moon 4:42 PM EST (11/11) 5:31 AM EST (11/11)
Length of Visible Light 11h 02m
Length of Day
10h 04m
Waxing Gibbous, 99% of the Moon is Illuminated
Nov 11
Waxing Gibbous
Nov 12
Full
Nov 19
Last Quarter
Nov 26
New
Dec 4
First Quarter

Hourly Weather History & Observations

Time (EST) Temp. Dew Point Humidity Pressure Visibility Wind Dir Wind Speed Gust Speed Precip Events Conditions
12:15 AM 37.4 °F 33.8 °F 87% 30.07 in 10.0 mi Calm Calm - N/A   Overcast
12:35 AM 39.2 °F 33.8 °F 81% 30.07 in 10.0 mi Calm Calm - N/A   Overcast
12:55 AM 37.4 °F 33.8 °F 87% 30.07 in 10.0 mi Calm Calm - N/A   Mostly Cloudy
1:15 AM 37.4 °F 33.8 °F 87% 30.07 in 10.0 mi Calm Calm - N/A   Mostly Cloudy
1:35 AM 37.4 °F 33.8 °F 87% 30.06 in 10.0 mi Calm Calm - N/A   Scattered Clouds
1:55 AM 37.4 °F 33.8 °F 87% 30.06 in 10.0 mi Calm Calm - N/A   Clear
2:15 AM 35.6 °F 33.8 °F 93% 30.05 in 10.0 mi Calm Calm - N/A   Clear
2:35 AM 37.4 °F 33.8 °F 87% 30.06 in 10.0 mi Calm Calm - N/A   Clear
2:55 AM 35.6 °F 33.8 °F 93% 30.06 in 10.0 mi Calm Calm - N/A   Clear
3:35 AM 35.6 °F 33.8 °F 93% 30.06 in 10.0 mi Calm Calm - N/A   Clear
3:55 AM 35.6 °F 33.8 °F 93% 30.06 in 10.0 mi Calm Calm - N/A   Clear
4:15 AM 35.6 °F 33.8 °F 93% 30.07 in 10.0 mi Calm Calm - N/A   Clear
4:35 AM 33.8 °F 32.0 °F 93% 30.08 in 7.0 mi Calm Calm - N/A   Clear
5:15 AM 33.8 °F 32.0 °F 93% 30.08 in 10.0 mi Calm Calm - N/A   Clear
5:35 AM 32.0 °F 32.0 °F 100% 30.08 in 7.0 mi Calm Calm - N/A   Clear
5:55 AM 33.8 °F 32.0 °F 93% 30.08 in 10.0 mi Calm Calm - N/A   Clear
6:15 AM 33.8 °F 32.0 °F 93% 30.08 in 10.0 mi Calm Calm - N/A   Clear
6:35 AM 32.0 °F 32.0 °F 100% 30.08 in 10.0 mi Calm Calm - N/A   Clear
6:55 AM 33.8 °F 32.0 °F 93% 30.08 in 7.0 mi Calm Calm - N/A   Clear
7:15 AM 32.0 °F 32.0 °F 100% 30.09 in 7.0 mi Calm Calm - N/A   Clear
7:35 AM 33.8 °F 32.0 °F 93% 30.10 in 7.0 mi Calm Calm - N/A   Clear
7:55 AM 35.6 °F 33.8 °F 93% 30.09 in 10.0 mi Calm Calm - N/A   Clear
8:35 AM 39.2 °F 35.6 °F 87% 30.10 in 10.0 mi Calm Calm - N/A   Clear
8:55 AM 41.0 °F 35.6 °F 81% 30.09 in 10.0 mi Calm Calm - N/A   Clear
9:15 AM 42.8 °F 35.6 °F 76% 30.10 in 10.0 mi Calm Calm - N/A   Clear
9:35 AM 44.6 °F 35.6 °F 71% 30.09 in 10.0 mi Calm Calm - N/A   Clear
9:55 AM 46.4 °F 37.4 °F 71% 30.09 in 10.0 mi Calm Calm - N/A   Clear
10:15 AM 48.2 °F 37.4 °F 66% 30.09 in 10.0 mi Calm Calm - N/A   Clear
10:35 AM 50.0 °F 37.4 °F 62% 30.08 in 10.0 mi Calm Calm - N/A   Clear
10:55 AM 51.8 °F 37.4 °F 58% 30.08 in 10.0 mi Calm Calm - N/A   Clear
11:15 AM 53.6 °F 37.4 °F 54% 30.06 in 10.0 mi Calm Calm - N/A   Clear
11:35 AM 53.6 °F 39.2 °F 58% 30.06 in 10.0 mi Calm Calm - N/A   Clear
11:55 AM 55.4 °F 39.2 °F 54% 30.06 in 10.0 mi Calm Calm - N/A   Clear
12:15 PM 57.2 °F 39.2 °F 51% 30.04 in 10.0 mi Calm Calm - N/A   Clear
12:35 PM 59.0 °F 39.2 °F 48% 30.03 in 10.0 mi SW 6.9 mph - N/A   Clear
12:55 PM 59.0 °F 39.2 °F 48% 30.02 in 10.0 mi SSW 5.8 mph - N/A   Clear
1:15 PM 59.0 °F 41.0 °F 51% 30.01 in 10.0 mi Calm Calm - N/A   Clear
1:35 PM 60.8 °F 41.0 °F 48% 30.00 in 10.0 mi Calm Calm - N/A   Clear
1:55 PM 60.8 °F 41.0 °F 48% 29.99 in 10.0 mi WSW 3.5 mph - N/A   Clear
2:15 PM 60.8 °F 41.0 °F 48% 29.99 in 10.0 mi SSW 3.5 mph - N/A   Clear
2:35 PM 60.8 °F 41.0 °F 48% 29.98 in 10.0 mi South 3.5 mph - N/A   Clear
3:15 PM 62.6 °F 41.0 °F 45% 29.96 in 10.0 mi SE 4.6 mph - N/A   Clear
3:35 PM 60.8 °F 41.0 °F 48% 29.95 in 10.0 mi SSE 4.6 mph - N/A   Clear
3:55 PM 60.8 °F 41.0 °F 48% 29.95 in 10.0 mi SSE 4.6 mph - N/A   Clear
4:15 PM 59.0 °F 41.0 °F 51% 29.94 in 10.0 mi SE 4.6 mph - N/A   Clear
4:35 PM 59.0 °F 41.0 °F 51% 29.93 in 10.0 mi Calm Calm - N/A   Clear
4:55 PM 57.2 °F 41.0 °F 55% 29.93 in 10.0 mi ESE 3.5 mph - N/A   Clear
5:15 PM 55.4 °F 41.0 °F 58% 29.91 in 10.0 mi SE 3.5 mph - N/A   Clear
5:35 PM 57.2 °F 41.0 °F 55% 29.90 in 10.0 mi SE 4.6 mph - N/A   Clear
5:55 PM 57.2 °F 41.0 °F 55% 29.89 in 10.0 mi SSE 5.8 mph - N/A   Clear
6:15 PM 55.4 °F 41.0 °F 58% 29.88 in 10.0 mi SE 3.5 mph - N/A   Clear
6:35 PM 55.4 °F 41.0 °F 58% 29.88 in 10.0 mi SE 4.6 mph - N/A   Clear
6:55 PM 55.4 °F 41.0 °F 58% 29.87 in 10.0 mi SSE 4.6 mph - N/A   Clear
7:15 PM 55.4 °F 41.0 °F 58% 29.87 in 10.0 mi Calm Calm - N/A   Clear
7:35 PM 55.4 °F 41.0 °F 58% 29.88 in 10.0 mi Calm Calm - N/A   Clear
7:55 PM 51.8 °F 41.0 °F 67% 29.88 in 10.0 mi Calm Calm - N/A   Clear
8:15 PM 53.6 °F 41.0 °F 62% 29.88 in 10.0 mi Calm Calm - N/A   Clear
8:35 PM 51.8 °F 41.0 °F 67% 29.86 in 10.0 mi SSE 4.6 mph - N/A   Clear
9:15 PM 53.6 °F 41.0 °F 62% 29.85 in 10.0 mi SSW 3.5 mph - N/A   Clear
9:35 PM 51.8 °F 41.0 °F 67% 29.84 in 10.0 mi Calm Calm - N/A   Clear
9:55 PM 53.6 °F 42.8 °F 67% 29.82 in 10.0 mi South 5.8 mph - N/A   Clear
10:15 PM 55.4 °F 42.8 °F 63% 29.81 in 10.0 mi SSW 9.2 mph - N/A   Clear
10:35 PM 53.6 °F 42.8 °F 67% 29.80 in 10.0 mi SSW 9.2 mph - N/A   Clear
10:55 PM 53.6 °F 42.8 °F 67% 29.79 in 10.0 mi South 9.2 mph - N/A   Clear
11:15 PM 55.4 °F 44.6 °F 67% 29.78 in 10.0 mi South 11.5 mph 18.4 mph N/A   Clear
11:35 PM 53.6 °F 44.6 °F 72% 29.78 in 10.0 mi SSW 3.5 mph - N/A   Clear
11:55 PM 53.6 °F 44.6 °F 72% 29.77 in 10.0 mi SSW 5.8 mph - N/A   Clear